sat.trackr.live / text

‹ back to catalog

STARLINK-35576

NORAD 66137 · 2025-237Z

PAYLOAD ACTIVE UNKNOWN

§ Identity

Operator
Country
US
Launch date
2025-10-22
Launch site
AFWTR
Launch vehicle
Mass (kg)
RCS (m²)

Purposes: comms

External: N2YO · Heavens-Above · Gunter

§ Orbital elements

Epoch: 2026-05-24T23:18:06.141024Z

Period
94.10 min
Inclination
53.1602°
Eccentricity
0.0001233
Mean motion
15.30208008 rev/d
Perigee alt
474.3 km
Apogee alt
476.0 km
Semi-major
6,853.3 km
B*
3.6795e-4
RAAN
45.0040°
Arg perigee
102.9824°
Mean anomaly
257.1314°
Rev number
3,429

§ Raw data

STARLINK-355761 66137U 25237Z   26144.97090441  .00010557  00000+0  36795-3 0  99932 66137  53.1602  45.0040 0001233 102.9824 257.1314 15.30208008 34298

JSON: /api/v1/satellites/66137 · /tle

For live sub-satellite position, see the globe view (requires WebGL).

§ Visibility from observer

Set your observer location to see the next 7 days of passes ≥ 10°. The values pass through the URL so the page stays shareable.

No JS? Fill the form by hand. The geolocation button needs JavaScript.